Tracking 28052 objects as of 24-Sep-2023
HD Live streaming from Space Station
objects crossing your sky now

THORAD DELTA 1 DEB

Track THORAD DELTA 1 DEB now!
10-day predictions


NORAD ID: 8401
Int'l Code: 1974-089CD
Perigee: 1,351.1 km
Apogee: 1,452.4 km
Inclination: 101.5 °
Period: 113.7 minutes
Semi major axis: 7772 km
RCS: 0.0291 m2 (small)
Launch date: November 15, 1974
Source: United States (US)
Launch site: AIR FORCE WESTERN TEST RANGE (AFWTR)

Note: This is SATELLITE DEBRIS
Your satellite tracking list
Your tracking list is empty




NASA's NSSDC Master Catalog

Two Line Element Set (TLE):
1 08401U 74089CD  23267.16298858 -.00000026  00000-0  99718-4 0  9995
2 08401 101.5062 337.1603 0065156 253.7101 165.1288 12.66899005259019
Source of the keplerian elements: AFSPC